Location: Deardoffs Mills (historical)
(40.6353°N, 81.5590°W)
Time: 14:37:58
(UTC+00:00)

N. Korean satellite - Visible Passes

Search period start: 05 October 2022 00:00
Search period end: 15 October 2022 00:00
Orbit: 426 x 467 km, 97.3° (Epoch: 05 October)

Date Brightness Start Highest point End Pass type
(mag) Time Alt. Az. Time Alt. Az. Time Alt. Az.
05 Oct 8.2 10:16:35 10° NNE 10:19:34 33° E 10:22:33 10° SSE visible
06 Oct 9.9 09:42:21 10° ENE 09:43:21 11° E 09:44:20 10° ESE visible
07 Oct 6.7 10:36:54 10° NNE 10:40:10 69° ESE 10:43:25 10° S visible
08 Oct 9.2 10:01:24 10° NE 10:03:55 20° E 10:06:25 10° SE visible
09 Oct 6.4 10:57:14 10° N 11:00:27 57° WNW 11:03:39 10° SSW visible
10 Oct 7.9 10:21:06 10° NNE 10:24:11 38° E 10:27:17 10° S visible
11 Oct 9.8 09:46:10 10° ENE 09:47:42 13° E 09:49:14 10° ESE visible
12 Oct 6.4 10:40:53 10° NNE 10:44:11 79° ESE 10:47:28 10° S visible
13 Oct 9.0 10:04:58 10° NE 10:07:39 23° E 10:10:21 10° SSE visible
14 Oct 6.5 11:00:40 10° N 11:03:52 51° WNW 11:07:04 10° SSW visible
